Snow/Ice From: 16-12-2017 16:00 Until: 17-12-2017 16:00 warning for: Snow/Ice Level: Yellow info button

Although rather usual in this region, locally or potentially dangerous phenomena are expected. (such as local winds, summer thunderstorms, rising streams or high waves) Be aware and pay attention to the latest weather updates, especially if you carry out activities exposed to weather or close to a stream or shoreline. 


Meteo18 Weather Cam more information Meteo18 Weather Cam


Thunder radar more information blitzortung!


warning for Snow/Ice more information rain snow radar


Visit our other weather sites:

Template documentation
and downloads

And another site



Weather Underground History page Text

Daily Summary for June 18, 2017 Units:  English    Metric   Both
« Previous Day
Next Day »
Daily Weekly Monthly Yearly Custom
  High: Low: Average:
Temperature: 85.1 °F 61 °F 73.8 °F
Dew Point: 62.1 °F 55.9 °F 58.6 °F
Humidity: 84 % 42 % 61 %
Wind Speed: 19 mph 0 mph 6.3 mph
Wind Gust: 21 mph - -
Wind:- - ENE
Pressure: 30.3 in 30.1 in -
Precipitation: 0 in    
Historical Graphs
 
 
Tabular Data for June 18, 2017
Time Temperature Dew Point Pressure Wind Wind Speed Wind Gust Humidity Rainfall Rate (Hourly)
00:02 66.9 °F 57.6 °F 30.3 in NNE 7 mph 12 mph 72 % 0 in
00:07 66.9 °F 57.6 °F 30.3 in NW 4 mph 12 mph 72 % 0 in
00:12 66.7 °F 57.7 °F 30.3 in NNE 3 mph 12 mph 73 % 0 in
00:17 66.7 °F 57.7 °F 30.3 in NE 7 mph 12 mph 73 % 0 in
00:22 66.7 °F 57.7 °F 30.3 in North 4 mph 11 mph 73 % 0 in
00:32 66.4 °F 57.4 °F 30.3 in NE 3 mph 11 mph 73 % 0 in
00:42 66 °F 57.6 °F 30.3 in NE 2 mph 8 mph 74 % 0 in
00:47 66 °F 57.6 °F 30.3 in NNW 3 mph 8 mph 74 % 0 in
00:52 65.8 °F 57.7 °F 30.3 in NNE 2 mph 8 mph 75 % 0 in
00:57 65.8 °F 57.7 °F 30.3 in NNW 3 mph 9 mph 75 % 0 in
01:02 65.7 °F 57.6 °F 30.3 in ENE 3 mph 9 mph 75 % 0 in
01:07 65.5 °F 57.4 °F 30.3 in NW 4 mph 9 mph 75 % 0 in
01:12 65.5 °F 57.7 °F 30.3 in ENE 4 mph 10 mph 76 % 0 in
01:17 65.7 °F 57.6 °F 30.3 in North 3 mph 11 mph 75 % 0 in
01:22 65.3 °F 57.6 °F 30.3 in NE 5 mph 13 mph 76 % 0 in
01:27 65.1 °F 57.4 °F 30.3 in North 5 mph 13 mph 76 % 0 in
01:37 65.3 °F 57.6 °F 30.3 in NE 8 mph 11 mph 76 % 0 in
01:42 65.5 °F 57.7 °F 30.3 in NNE 8 mph 12 mph 76 % 0 in
01:47 65.3 °F 57.6 °F 30.3 in NNE 6 mph 12 mph 76 % 0 in
01:52 65.1 °F 57.7 °F 30.3 in NNE 6 mph 12 mph 77 % 0 in
01:57 65.1 °F 57.7 °F 30.3 in NE 5 mph 13 mph 77 % 0 in
02:02 64.9 °F 57.6 °F 30.3 in NE 8 mph 13 mph 77 % 0 in
02:07 64.8 °F 57.4 °F 30.3 in NE 5 mph 13 mph 77 % 0 in
02:12 64.6 °F 57.6 °F 30.2 in NE 4 mph 11 mph 78 % 0 in
02:17 64.2 °F 57.6 °F 30.2 in NNE 6 mph 8 mph 79 % 0 in
02:22 64 °F 57.4 °F 30.2 in NE 3 mph 8 mph 79 % 0 in
02:32 63.7 °F 57.4 °F 30.2 in NNE 2 mph 8 mph 80 % 0 in
02:37 63.3 °F 57 °F 30.2 in NNE 2 mph 5 mph 80 % 0 in
02:42 63.3 °F 57 °F 30.2 in NE 3 mph 7 mph 80 % 0 in
02:47 63.3 °F 57 °F 30.2 in NNE 2 mph 7 mph 80 % 0 in
02:52 63.1 °F 57.2 °F 30.2 in NNE 2 mph 7 mph 81 % 0 in
02:57 63.3 °F 57.4 °F 30.2 in NE 7 mph 7 mph 81 % 0 in
03:02 63.5 °F 57.6 °F 30.2 in North 4 mph 7 mph 81 % 0 in
03:07 63.5 °F 57.6 °F 30.2 in NE 5 mph 10 mph 81 % 0 in
03:12 63.7 °F 57.4 °F 30.2 in NE 6 mph 10 mph 80 % 0 in
03:17 63.7 °F 57.4 °F 30.2 in NE 5 mph 10 mph 80 % 0 in
03:22 63.7 °F 57.4 °F 30.2 in NNW 5 mph 9 mph 80 % 0 in
03:32 63.5 °F 57.6 °F 30.2 in NNE 5 mph 8 mph 81 % 0 in
03:37 63.3 °F 57.4 °F 30.2 in ENE 4 mph 8 mph 81 % 0 in
03:42 63.3 °F 57.4 °F 30.2 in NNE 2 mph 8 mph 81 % 0 in
03:47 63.1 °F 57.2 °F 30.2 in NE 4 mph 7 mph 81 % 0 in
03:52 63.1 °F 57.2 °F 30.2 in NE 5 mph 10 mph 81 % 0 in
03:57 63 °F 57 °F 30.2 in NE 7 mph 10 mph 81 % 0 in
04:02 63 °F 57.4 °F 30.2 in NE 5 mph 10 mph 82 % 0 in
04:07 63 °F 57.4 °F 30.2 in NE 4 mph 10 mph 82 % 0 in
04:12 63 °F 57.4 °F 30.2 in NNW 2 mph 10 mph 82 % 0 in
04:17 63 °F 57.4 °F 30.2 in NE 2 mph 8 mph 82 % 0 in
04:22 62.8 °F 57.2 °F 30.2 in NE 3 mph 10 mph 82 % 0 in
04:27 62.6 °F 57 °F 30.2 in North 5 mph 10 mph 82 % 0 in
04:32 62.4 °F 56.8 °F 30.2 in ENE 2 mph 10 mph 82 % 0 in
04:37 62.2 °F 57 °F 30.2 in WNW 1 mph 7 mph 83 % 0 in
04:42 62.1 °F 56.8 °F 30.2 in NE 2 mph 6 mph 83 % 0 in
04:47 62.1 °F 56.8 °F 30.2 in NNW 1 mph 6 mph 83 % 0 in
04:52 62.1 °F 56.8 °F 30.2 in ENE 2 mph 6 mph 83 % 0 in
05:02 61.7 °F 56.5 °F 30.2 in NE 2 mph 8 mph 83 % 0 in
05:07 61.5 °F 56.3 °F 30.2 in NE 3 mph 8 mph 83 % 0 in
05:12 61.3 °F 56.5 °F 30.2 in NNE 4 mph 8 mph 84 % 0 in
05:17 61.5 °F 56.7 °F 30.2 in NNW 5 mph 8 mph 84 % 0 in
05:22 61.5 °F 56.3 °F 30.2 in North 2 mph 8 mph 83 % 0 in
05:32 61.3 °F 56.1 °F 30.2 in NE 3 mph 10 mph 83 % 0 in
05:42 61.5 °F 56.3 °F 30.2 in NE 4 mph 7 mph 83 % 0 in
05:52 61.2 °F 55.9 °F 30.2 in Calm   9 mph 83 % 0 in
05:57 61.2 °F 56.3 °F 30.2 in NNW 1 mph 9 mph 84 % 0 in
06:02 61.2 °F 55.9 °F 30.2 in North 3 mph 9 mph 83 % 0 in
06:12 61.2 °F 55.9 °F 30.2 in North 1 mph 6 mph 83 % 0 in
06:17 61 °F 56.1 °F 30.2 in Calm   7 mph 84 % 0 in
06:27 61.2 °F 56.3 °F 30.2 in NNE 2 mph 7 mph 84 % 0 in
06:32 61.2 °F 56.3 °F 30.2 in NE 2 mph 7 mph 84 % 0 in
06:42 61.9 °F 56.7 °F 30.2 in NNE 4 mph 7 mph 83 % 0 in
06:47 62.1 °F 56.5 °F 30.2 in Calm   6 mph 82 % 0 in
06:52 62.4 °F 56.8 °F 30.2 in NNE 3 mph 6 mph 82 % 0 in
07:02 63 °F 56.7 °F 30.2 in NNE 3 mph 5 mph 80 % 0 in
07:12 63.3 °F 57 °F 30.2 in NNE 5 mph 8 mph 80 % 0 in
07:22 63.9 °F 57.2 °F 30.2 in NE 9 mph 9 mph 79 % 0 in
07:32 64.2 °F 56.8 °F 30.2 in NE 8 mph 11 mph 77 % 0 in
07:42 64.6 °F 57.2 °F 30.2 in ENE 7 mph 14 mph 77 % 0 in
07:47 64.6 °F 57.2 °F 30.2 in NE 4 mph 15 mph 77 % 0 in
07:52 64.8 °F 57.4 °F 30.2 in NE 6 mph 15 mph 77 % 0 in
08:02 64.9 °F 57.6 °F 30.2 in ENE 9 mph 14 mph 77 % 0 in
08:12 65.5 °F 57.7 °F 30.2 in ENE 2 mph 13 mph 76 % 0 in
08:17 65.5 °F 57.7 °F 30.2 in ENE 3 mph 12 mph 76 % 0 in
08:22 65.7 °F 57.6 °F 30.2 in NNE 4 mph 12 mph 75 % 0 in
08:27 65.8 °F 57.7 °F 30.2 in NE 9 mph 12 mph 75 % 0 in
08:32 66 °F 57.9 °F 30.2 in NNE 5 mph 12 mph 75 % 0 in
08:42 66.7 °F 58.1 °F 30.2 in NE 6 mph 10 mph 74 % 0 in
08:47 67.3 °F 58.6 °F 30.2 in NE 5 mph 10 mph 74 % 0 in
08:52 67.5 °F 58.1 °F 30.2 in NE 5 mph 10 mph 72 % 0 in
09:02 68 °F 57.9 °F 30.2 in ENE 5 mph 11 mph 70 % 0 in
09:12 68.7 °F 57.7 °F 30.2 in ENE 5 mph 14 mph 68 % 0 in
09:17 69.3 °F 58.3 °F 30.2 in NE 12 mph 13 mph 68 % 0 in
09:22 69.4 °F 57.6 °F 30.2 in North 12 mph 13 mph 66 % 0 in
09:32 70 °F 58.1 °F 30.2 in ENE 5 mph 14 mph 66 % 0 in
09:42 70.3 °F 57.6 °F 30.2 in NE 5 mph 17 mph 64 % 0 in
09:52 71.1 °F 57.4 °F 30.2 in NNE 6 mph 16 mph 62 % 0 in
10:02 71.8 °F 57.2 °F 30.2 in NNE 5 mph 16 mph 60 % 0 in
10:07 71.8 °F 57.2 °F 30.2 in NE 10 mph 17 mph 60 % 0 in
10:12 72 °F 56.8 °F 30.2 in NE 9 mph 17 mph 59 % 0 in
10:17 72.1 °F 56.5 °F 30.2 in NE 11 mph 19 mph 58 % 0 in
10:22 72.3 °F 56.7 °F 30.2 in ENE 7 mph 19 mph 58 % 0 in
10:32 73.2 °F 56.7 °F 30.2 in ENE 11 mph 19 mph 56 % 0 in
10:42 72.7 °F 57 °F 30.2 in ENE 16 mph 18 mph 58 % 0 in
10:52 73.4 °F 57.2 °F 30.2 in North 14 mph 20 mph 57 % 0 in
11:02 73.2 °F 57 °F 30.2 in NNE 8 mph 19 mph 57 % 0 in
11:12 73.8 °F 57 °F 30.2 in NE 11 mph 19 mph 56 % 0 in
11:17 73.9 °F 57.7 °F 30.2 in NE 11 mph 19 mph 57 % 0 in
11:22 74.7 °F 57.4 °F 30.2 in NNE 12 mph 19 mph 55 % 0 in
11:32 74.7 °F 57.9 °F 30.2 in East 6 mph 17 mph 56 % 0 in
11:42 75 °F 57.2 °F 30.2 in NE 5 mph 17 mph 54 % 0 in
11:47 75.4 °F 57.6 °F 30.2 in NE 7 mph 18 mph 54 % 0 in
11:52 75.6 °F 57.2 °F 30.2 in NNE 5 mph 18 mph 53 % 0 in
12:02 76.3 °F 57.9 °F 30.2 in ENE 10 mph 18 mph 53 % 0 in
12:07 76.5 °F 57.6 °F 30.2 in NE 6 mph 18 mph 52 % 0 in
12:12 77 °F 58.6 °F 30.2 in NE 10 mph 17 mph 53 % 0 in
12:17 77.5 °F 58.5 °F 30.2 in NE 8 mph 17 mph 52 % 0 in
12:22 77.5 °F 58.5 °F 30.2 in NE 8 mph 16 mph 52 % 0 in
12:27 77.7 °F 57.6 °F 30.2 in NE 7 mph 16 mph 50 % 0 in
12:32 77.7 °F 57 °F 30.2 in East 7 mph 16 mph 49 % 0 in
12:42 78.1 °F 57.9 °F 30.2 in East 14 mph 19 mph 50 % 0 in
12:47 78.4 °F 57.7 °F 30.2 in NE 9 mph 17 mph 49 % 0 in
12:52 78.3 °F 57.6 °F 30.2 in ENE 6 mph 17 mph 49 % 0 in
12:57 79 °F 57.6 °F 30.2 in NE 14 mph 17 mph 48 % 0 in
13:02 78.8 °F 57.4 °F 30.2 in East 6 mph 17 mph 48 % 0 in
13:07 79.2 °F 58.3 °F 30.2 in North 5 mph 16 mph 49 % 0 in
13:12 79.5 °F 57.6 °F 30.2 in ENE 10 mph 20 mph 47 % 0 in
13:17 79.5 °F 57.6 °F 30.2 in East 10 mph 20 mph 47 % 0 in
13:22 79.9 °F 57.2 °F 30.2 in ENE 11 mph 20 mph 46 % 0 in
13:27 80.1 °F 57.4 °F 30.2 in ENE 16 mph 18 mph 46 % 0 in
13:32 80.2 °F 58.8 °F 30.2 in ENE 7 mph 18 mph 48 % 0 in
13:37 80.8 °F 58.6 °F 30.2 in NE 11 mph 18 mph 47 % 0 in
13:42 80.2 °F 58.1 °F 30.2 in East 7 mph 17 mph 47 % 0 in
13:47 80.8 °F 58.1 °F 30.2 in ENE 6 mph 17 mph 46 % 0 in
13:52 81 °F 57.6 °F 30.2 in ENE 10 mph 17 mph 45 % 0 in
13:57 81.1 °F 58.5 °F 30.1 in NE 5 mph 16 mph 46 % 0 in
14:02 81.3 °F 58.6 °F 30.1 in NE 12 mph 16 mph 46 % 0 in
14:07 81.1 °F 58.5 °F 30.1 in NE 5 mph 18 mph 46 % 0 in
14:12 81.5 °F 58.6 °F 30.1 in NNE 12 mph 18 mph 46 % 0 in
14:17 81.5 °F 58.1 °F 30.1 in NE 12 mph 18 mph 45 % 0 in
14:22 81.7 °F 58.8 °F 30.1 in NE 12 mph 19 mph 46 % 0 in
14:27 81.9 °F 58.5 °F 30.1 in NNE 10 mph 19 mph 45 % 0 in
14:32 82.4 °F 59 °F 30.1 in NNE 10 mph 19 mph 45 % 0 in
14:37 82.4 °F 59 °F 30.1 in NE 8 mph 19 mph 45 % 0 in
14:42 82.8 °F 59.2 °F 30.1 in NE 3 mph 19 mph 45 % 0 in
14:47 83.1 °F 58.3 °F 30.1 in NE 12 mph 19 mph 43 % 0 in
14:52 83.3 °F 59.2 °F 30.1 in NE 6 mph 18 mph 44 % 0 in
14:57 83.5 °F 59.4 °F 30.1 in NNE 19 mph 19 mph 44 % 0 in
15:02 82.8 °F 58.6 °F 30.1 in NNE 7 mph 18 mph 44 % 0 in
15:07 83.5 °F 59.4 °F 30.1 in NNE 8 mph 21 mph 44 % 0 in
15:12 83.1 °F 59 °F 30.1 in ENE 9 mph 21 mph 44 % 0 in
15:17 83.7 °F 58.8 °F 30.1 in ENE 9 mph 15 mph 43 % 0 in
15:22 83.1 °F 59 °F 30.1 in NNE 7 mph 17 mph 44 % 0 in
15:27 83.7 °F 58.8 °F 30.1 in East 10 mph 17 mph 43 % 0 in
15:32 83.8 °F 59 °F 30.1 in NE 9 mph 17 mph 43 % 0 in
15:37 84 °F 58.5 °F 30.1 in NE 6 mph 15 mph 42 % 0 in
15:42 83.8 °F 59.5 °F 30.1 in East 15 mph 16 mph 44 % 0 in
15:47 84 °F 58.5 °F 30.1 in ENE 11 mph 16 mph 42 % 0 in
15:52 83.8 °F 59.5 °F 30.1 in NE 5 mph 16 mph 44 % 0 in
15:57 83.8 °F 58.3 °F 30.1 in NE 7 mph 16 mph 42 % 0 in
16:02 84.4 °F 60.1 °F 30.1 in ENE 6 mph 16 mph 44 % 0 in
16:07 84.6 °F 59 °F 30.1 in NE 8 mph 16 mph 42 % 0 in
16:12 84.4 °F 58.8 °F 30.1 in NE 7 mph 19 mph 42 % 0 in
16:17 84.2 °F 59.4 °F 30.1 in ENE 7 mph 19 mph 43 % 0 in
16:22 84.7 °F 59.7 °F 30.1 in NNE 7 mph 15 mph 43 % 0 in
16:27 84.7 °F 59.7 °F 30.1 in NE 9 mph 14 mph 43 % 0 in
16:32 85.1 °F 60.8 °F 30.1 in NNE 6 mph 14 mph 44 % 0 in
16:37 84.7 °F 59.2 °F 30.1 in NE 5 mph 18 mph 42 % 0 in
16:42 84.7 °F 59.7 °F 30.1 in ENE 12 mph 18 mph 43 % 0 in
16:47 84.6 °F 61.5 °F 30.1 in North 5 mph 16 mph 46 % 0 in
16:52 84.6 °F 61.5 °F 30.1 in ENE 10 mph 16 mph 46 % 0 in
16:57 84.6 °F 59.5 °F 30.1 in NNE 5 mph 16 mph 43 % 0 in
17:02 84.9 °F 61.2 °F 30.1 in NE 9 mph 16 mph 45 % 0 in
17:12 84.4 °F 60.1 °F 30.1 in NE 5 mph 19 mph 44 % 0 in
17:17 84.4 °F 61.3 °F 30.1 in NE 5 mph 19 mph 46 % 0 in
17:22 84.6 °F 61.5 °F 30.1 in ENE 7 mph 14 mph 46 % 0 in
17:32 84.9 °F 60.6 °F 30.1 in NE 11 mph 15 mph 44 % 0 in
17:37 84.6 °F 60.8 °F 30.1 in NNE 6 mph 15 mph 45 % 0 in
17:42 84.4 °F 61.3 °F 30.1 in NW 4 mph 15 mph 46 % 0 in
17:47 84.6 °F 62.1 °F 30.1 in NNE 11 mph 17 mph 47 % 0 in
17:52 84.4 °F 60.8 °F 30.1 in NE 8 mph 17 mph 45 % 0 in
18:02 84 °F 61.7 °F 30.1 in ENE 12 mph 17 mph 47 % 0 in
18:07 84.4 °F 61.3 °F 30.1 in NE 6 mph 17 mph 46 % 0 in
18:12 84.2 °F 61.7 °F 30.1 in ESE 4 mph 17 mph 47 % 0 in
18:17 84.4 °F 61.3 °F 30.1 in NNE 8 mph 17 mph 46 % 0 in
18:22 84 °F 61 °F 30.1 in NNE 4 mph 17 mph 46 % 0 in
18:27 84 °F 61 °F 30.1 in ENE 8 mph 17 mph 46 % 0 in
18:32 83.7 °F 60.6 °F 30.1 in North 7 mph 18 mph 46 % 0 in
18:37 83.7 °F 60.6 °F 30.1 in NE 11 mph 18 mph 46 % 0 in
18:42 83.5 °F 61.7 °F 30.1 in NNE 10 mph 18 mph 48 % 0 in
18:47 83.5 °F 61.7 °F 30.1 in NE 9 mph 14 mph 48 % 0 in
18:52 83.5 °F 61.7 °F 30.1 in NNW 6 mph 16 mph 48 % 0 in
18:57 83.5 °F 61.7 °F 30.1 in NNW 5 mph 17 mph 48 % 0 in
19:02 83.3 °F 61.5 °F 30.1 in NNE 9 mph 17 mph 48 % 0 in
19:07 83.1 °F 60.8 °F 30.1 in NNE 6 mph 17 mph 47 % 0 in
19:12 83.1 °F 60.8 °F 30.1 in NE 5 mph 17 mph 47 % 0 in
19:17 82.9 °F 61.2 °F 30.1 in North 4 mph 16 mph 48 % 0 in
19:22 83.1 °F 61.3 °F 30.1 in NNW 8 mph 16 mph 48 % 0 in
19:32 82.8 °F 61.7 °F 30.1 in ENE 3 mph 13 mph 49 % 0 in
19:37 82.8 °F 61.7 °F 30.1 in ENE 7 mph 13 mph 49 % 0 in
19:42 82.4 °F 60.8 °F 30.1 in NE 6 mph 17 mph 48 % 0 in
19:47 82 °F 60.4 °F 30.1 in NNE 11 mph 18 mph 48 % 0 in
19:52 82 °F 60.4 °F 30.1 in NE 11 mph 18 mph 48 % 0 in
19:57 81.9 °F 60.8 °F 30.1 in NE 10 mph 18 mph 49 % 0 in
20:02 81.9 °F 60.3 °F 30.1 in NE 9 mph 18 mph 48 % 0 in
20:07 81.7 °F 60.6 °F 30.1 in NE 12 mph 17 mph 49 % 0 in
20:12 81.7 °F 60.6 °F 30.1 in NNE 8 mph 17 mph 49 % 0 in
20:17 81.3 °F 60.3 °F 30.1 in NNE 10 mph 17 mph 49 % 0 in
20:22 81.3 °F 61 °F 30.1 in NE 8 mph 14 mph 50 % 0 in
20:27 81.1 °F 60.8 °F 30.1 in NNE 8 mph 14 mph 50 % 0 in
20:32 81 °F 60.6 °F 30.1 in NNE 8 mph 14 mph 50 % 0 in
20:37 80.8 °F 60.4 °F 30.1 in NNE 9 mph 15 mph 50 % 0 in
20:42 80.6 °F 60.3 °F 30.1 in NE 6 mph 15 mph 50 % 0 in
20:47 80.4 °F 60.6 °F 30.1 in NNE 5 mph 13 mph 51 % 0 in
20:52 80.2 °F 61 °F 30.1 in North 7 mph 13 mph 52 % 0 in
20:57 79.9 °F 60.6 °F 30.1 in North 2 mph 10 mph 52 % 0 in
21:02 79.5 °F 60.4 °F 30.1 in NE 3 mph 10 mph 52 % 0 in
21:12 79 °F 60.4 °F 30.1 in NNE 6 mph 10 mph 53 % 0 in
21:22 78.6 °F 60.1 °F 30.1 in North 6 mph 13 mph 53 % 0 in
21:27 78.3 °F 60.3 °F 30.1 in NNE 10 mph 13 mph 54 % 0 in
21:32 77.9 °F 59.9 °F 30.1 in NNE 10 mph 13 mph 54 % 0 in
21:37 77.4 °F 59.9 °F 30.1 in NE 3 mph 11 mph 55 % 0 in
21:42 77 °F 60.1 °F 30.1 in NE 7 mph 11 mph 56 % 0 in
21:47 76.6 °F 59.7 °F 30.1 in NNE 5 mph 10 mph 56 % 0 in
21:52 76.5 °F 60.1 °F 30.1 in NNE 4 mph 9 mph 57 % 0 in
21:57 76.1 °F 60.3 °F 30.1 in NE 4 mph 9 mph 58 % 0 in
22:02 75.6 °F 60.3 °F 30.1 in ENE 2 mph 9 mph 59 % 0 in
22:07 75 °F 60.3 °F 30.1 in NNE 4 mph 8 mph 60 % 0 in
22:12 74.8 °F 60.1 °F 30.1 in NE 6 mph 8 mph 60 % 0 in
22:17 74.7 °F 60.3 °F 30.1 in NNE 2 mph 7 mph 61 % 0 in
22:22 74.1 °F 60.3 °F 30.1 in NNE 5 mph 7 mph 62 % 0 in
22:27 73.8 °F 59.9 °F 30.1 in North 6 mph 7 mph 62 % 0 in
22:32 73.4 °F 60.1 °F 30.1 in NE 3 mph 7 mph 63 % 0 in
22:37 73.6 °F 60.3 °F 30.1 in NNE 7 mph 9 mph 63 % 0 in
22:42 73.8 °F 60.4 °F 30.1 in NE 6 mph 9 mph 63 % 0 in
22:47 73.6 °F 60.3 °F 30.1 in NNE 4 mph 9 mph 63 % 0 in
22:52 73 °F 60.1 °F 30.1 in NNE 4 mph 9 mph 64 % 0 in
22:57 72.9 °F 59.9 °F 30.1 in NE 4 mph 8 mph 64 % 0 in
23:02 72.5 °F 60.1 °F 30.1 in NE 7 mph 8 mph 65 % 0 in
23:07 72.3 °F 59.9 °F 30.1 in NNE 4 mph 8 mph 65 % 0 in
23:12 72 °F 59.9 °F 30.1 in NNE 6 mph 8 mph 66 % 0 in
23:17 72.1 °F 60.1 °F 30.1 in NNE 5 mph 8 mph 66 % 0 in
23:22 72 °F 59.9 °F 30.1 in NNE 3 mph 7 mph 66 % 0 in
23:27 71.8 °F 59.7 °F 30.1 in NNE 4 mph 7 mph 66 % 0 in
23:32 71.2 °F 59.7 °F 30.1 in NNE 3 mph 7 mph 67 % 0 in
23:37 71.2 °F 59.7 °F 30.1 in NNE 4 mph 7 mph 67 % 0 in
23:42 71.6 °F 59.7 °F 30.1 in NE 3 mph 9 mph 66 % 0 in
23:47 71.6 °F 59.7 °F 30.1 in NE 2 mph 9 mph 66 % 0 in
23:52 71.6 °F 59.7 °F 30.1 in NE 3 mph 9 mph 66 % 0 in
23:57 71.4 °F 59.9 °F 30.1 in NE 4 mph 8 mph 67 % 0 in
Meteo18
Compliments of Weather Underground - 4 mb

Script developed by  Jim McMurry - jmcmurry@mwt.net Adapted for the template by  Wim van der Kuil - Leuven-Template.eu

You find our weather info also at:

European Weather Network

Weather Underground

Equipment we use:

Weather-station
Davis Vue

Weather-program
Meteohub

Weather-server
Raspberry PI 2 B+

Provider
1 and 1

Davis Vue

Meteohub

Raspberry PI 2 B+

1 and 1